Weather in Ust'-Sarapulka

Russia / Udmurt Republic     56°23′33″N   53°51′13″E
temp.,
°C
wind,
m/s
gust,
m/s
humid.,
%
clouds,
%
prec.,
mm/h
press.,
hPa
HPBL,
m
22 october, fri
fri2201:00+3sw514100100 0.7 997408
04:00+4wsw512100100 0.8 999290
07:00+5ssw412100100 0.0 999306
10:00+7ssw61499100 0.3 998424
13:00+9sw71489100 0.1 997727
16:00+9sw71484100 0.1 997804
19:00+9sw81683100 0.3 998755
22:00+9wsw81581100 0.3 999860
23 october, sat
sat2301:00+8wsw8158898 0.0 1001732
04:00+10wsw8137158 0.0 10021035
07:00+6wsw613880 0.0 1004520
10:00+8wsw7128048 0.0 10061115
13:00+10wsw713615 0.1 10071483
16:00+9wsw610655 0.2 1008995
19:00+6sw4108137 0.0 1010260
22:00+5sw4108176 0.0 1010225
24 october, sun
sun2401:00+4ssw358812 0.0 101087
04:00+5sw2582100 0.1 1009124
07:00+4sse2495100 1.8 1006157
10:00+5sw378869 1.8 1006410
13:00+7wsw81073100 0.3 10071069
16:00+6wsw6107065 0.3 1009893
19:00+3wsw5127853 0.0 1011480
22:00+5sw4866100 0.0 1012375
25 october, mon
mon2501:00+4sw4772100 0.0 1012318
04:00+3wsw3783100 0.1 1013277
07:00+2w248894 0.0 1013188
10:00+2wsw2399100 1.1 1013248
13:00+3w2495100 0.3 1013359
16:00+3wnw3796100 0.6 1013559
19:00+1nnw71186100 0.5 1016798
22:00−1nnw612808 0.5 1018674
26 october, tue
tue2601:00−2nnw510858 0.0 1020512
04:00−3nw48845 0.0 1021404
07:00−3nw37875 0.0 1022296
10:00−1nw35725 0.0 1023559
13:00+1w34565 0.0 1022836
16:00+1sw355926 0.0 1021145
19:00−1ssw396580 0.0 1021257
22:00−1ssw4107276 0.0 1020293